Terminal Aerodrome Forecast
Issued by NWS

Home | Current Version | Previous Version | Text Only | Print | Product List | Glossary On
Versions: 1 2 3 4 5 6 7 8 9 10 11 12 13 14 15
772
FTUS45 KRIW 261746
TAFCPR
TAF
KCPR 261746Z 2618/2718 VRB04KT P6SM SCT100
     FM262100 VRB10G15KT P6SM VCTS SCT070CB BKN150
     FM270400 VRB06KT P6SM SCT100
     FM271500 23009KT P6SM SKC
     FM271700 24012G22KT P6SM SKC=

USA.gov is the U.S. government's official web portal to all federal, state and local government web resources and services.